Regional Weather Roundup
Issued by NWS Jackson, KY

Home | Current Version | Previous Version | Graphics & Text | Print | Product List | Glossary On
Versions: 1 2 3 4 5 6 7 8 9 10 11 12 13 14 15 16 17 18 19 20 21 22 23 24 25 26 27 28 29 30 31 32 33 34 35 36 37 38 39 40 41 42 43 44 45 46 47 48 49 50
000
ASUS43 KJKL 061710
RWRJKL

EAST KENTUCKY HOURLY WEATHER ROUNDUP
NATIONAL WEATHER SERVICE JACKSON KY
100 PM EDT WED MAY 06 2015

NOTE: "FAIR" INDICATES FEW OR NO CLOUDS BELOW 12,000 FEET WITH
NO SIGNIFICANT WEATHER AND/OR OBSTRUCTIONS TO VISIBILITY.

* THESE REPORTS ARE NOT UNDER NWS QUALITY CONTROL AND MAY NOT
  REPORT WEATHER SUCH AS PRECIPITATION AND FOG.

KYZ079-080-083-085-087-088-110-112-115-119-120-061800
...EASTERN KENTUCKY...

CITY           SKY/WX    TMP DP  RH WIND       PRES   REMARKS
JACKSON        SUNNY     81  56  42 VRB3      30.23F
LONDON         MOSUNNY   81  52  36 E8        30.22F
SOMERSET*      MOSUNNY   77  54  44 CALM      30.22F
MONTICELLO*    SUNNY     83  58  42 CALM      30.23F
MIDDLESBORO*   SUNNY     80  56  43 NE3       30.22F
HARLAN APT*    SUNNY     81  50  34 CALM      30.22F
HAZARD APT*    PTSUNNY   81  55  41 CALM      30.23F
BLACK MTN*       N/A     70  52  52 E2          N/A
PIKEVILLE APT* SUNNY     77  57  50 N3        30.23F
BIG SANDY*     MOSUNNY   79  58  48 NE6       30.24F
MOREHEAD APT*  SUNNY     84  52  32 NE7       30.23F
$$

KYZ035-036-041-042-044-050-067-078-099-061800
...CENTRAL KENTUCKY...

CITY           SKY/WX    TMP DP  RH WIND       PRES   REMARKS
MT STERLING*   MOSUNNY   79  54  41 NE3       30.23F
FLEMING/MASON* SUNNY     81  54  39 CALM      30.22F
DANVILLE*      PTSUNNY   79  59  50 E6        30.23F
RICHMOND*      PTSUNNY   79  57  47 E6        30.22F
LEXINGTON      MOSUNNY   82  57  42 NE5       30.22F
FRANKFORT      SUNNY     82  52  35 CALM      30.20F
$$

KYZ091>093-OHZ055-061-077-WVZ005-015-034-035-042-061800
...SOUTHERN OHIO/WEST VIRGINIA...

CITY           SKY/WX    TMP DP  RH WIND       PRES   REMARKS
COVINGTON      MOSUNNY   82  52  35 NW3       30.21F
COLUMBUS       MOSUNNY   82  57  42 VRB5      30.20F
DAYTON         PTSUNNY   83  56  39 NW7       30.22F
WILMINGTON     MOSUNNY   82  52  35 CALM      30.21F
HUNTINGTON     MOSUNNY   81  55  40 VRB3      30.20F
CHARLESTON     MOSUNNY   84  52  33 CALM      30.20F
PINEVILLE*     SUNNY     81  56  42 MISG      30.28F
BECKLEY        MOSUNNY   78  47  33 N7        30.27F
BLUEFIELD      CLOUDY    79  51  37 VRB5      30.28F
$$

VAZ002-007-008-TNZ017-027-036-066-071-061800
...SOUTHWEST VIRGINIA/EAST TENNESSEE...

CITY           SKY/WX    TMP DP  RH WIND       PRES   REMARKS
WISE*          CLOUDY    75  48  38 NE7       30.28F
JONESVILLE*    SUNNY     81  54  39 S3        30.24F
ABINGDON*      SUNNY     80  55  41 N3        30.24F
BRISTOL        MOSUNNY   80  57  45 VRB3      30.22F
KNOXVILLE      MOSUNNY   79  55  43 N8        30.20F
OAK RIDGE      SUNNY     81  55  40 VRB6      30.21F
CROSSVILLE     MOSUNNY   76  50  40 CALM      30.24F
NASHVILLE      MOSUNNY   83  55  38 S3        30.20F
$$

...KEY TO REMARKS...
VSB - VISIBILITY IN MILES
WCI - WIND CHILL INDEX
HX  - HEAT INDEX

$$



USA.gov is the U.S. government's official web portal to all federal, state and local government web resources and services.